Погода в Партизанске

Словакия     48°37′42″N   18°22′36″E
темп.,
°C
ветер,
м/с
пор.,
м/с
влажн.,
%
обл.,
%
осадки,
мм/ч
давл.,
гПа
погр.,
м
16 апреля, пт
пт1623:000сз2296100 0.1 1021180
02:000сз139091 0.1 1021391
05:000сз128789 0.0 1020185
08:00+1сз238286 0.1 1020508
11:00+4сз2370100 0.0 10201013
14:00+5сз3468100 0.1 10201063
17:00+5ссз347286 0.0 1019858
20:00+3с238759 0.0 1020144
17 апреля, сб
сб1723:000с22956 0.0 102134
02:00−1ссв229622 0.0 102026
05:00+1с129486 0.0 1019114
08:00+3с128896 0.0 1019339
11:00+5с2272100 0.0 1019903
14:00+7с116893 0.1 1018843
17:00+7ссз2268100 0.0 1018561
20:00+4ссв2282100 0.0 101858
18 апреля, вс
вс1823:00+4ссв2386100 0.0 101976
02:00+3ссв2387100 0.0 101881
05:00+3ссв2388100 0.0 101779
08:00+5ссв2377100 0.0 1017270
11:00+10с225694 0.0 10161180
14:00+13ссз1243100 0.0 10141872
17:00+12сз1249100 0.0 10141593
20:00+8св1180100 0.3 101542
19 апреля, пн
пн1923:00+7с0190100 0.7 101623
02:00+6с1292100 0.7 101546
05:00+5св2391100 0.0 101492
08:00+6ссв2387100 0.2 1014226
11:00+8ссв2378100 0.3 1013940
14:00+7св2486100 1.6 1013855
17:00+8ююв1184100 0.3 1012379
20:00+6з1198100 0.9 101270
20 апреля, вт
вт2023:00+6зсз119899 0.4 101250
02:00+6с119687 0.4 101243
05:00+5с1293100 0.0 101259
08:00+6ссз238681 0.0 1012123
11:00+11ссз335782 0.1 10111594
14:00+11ссз345286 0.3 10111432
17:00+12ссз345082 0.1 10101562
20:00+6с22735 0.1 101213